IZ0QWM-13 Scandriglia IT current weather conditions

sailwx.info

Wind from 096

Air temperature 10.0° C
Dewpoint 8.4° C

Last reported at 2014-Nov-24 07:44 UTC.
Time now 2014-Nov-24 08:20 UTC

Location: N 42°10' E 012°47'.
View on Google Maps.

See reports from other nearby stations

  
Tides and Currents Weather Stations Pressure Air Temp Water Temp Dewpoint Dewpoint Depression Visibility Wind Speed Wind Dir Waves Ship Positions
date/time (UTC)wind fromknots sea level pressurealtimeterstation pressurevisibilityair tempwater tempwave heightnotes
2014-Nov-24 07:44 096 10.0
2014-Nov-24 07:34 096 9.4
2014-Nov-24 07:14 096 9.4
2014-Nov-24 07:04 096 8.9
2014-Nov-24 06:54 096 8.9
2014-Nov-24 06:44 096 8.9
2014-Nov-24 06:34 096 8.9
2014-Nov-24 06:14 096 8.9
2014-Nov-24 06:04 096 8.9
2014-Nov-24 05:54 096 8.9
2014-Nov-24 05:44 096 8.9
2014-Nov-24 05:34 096 8.9
2014-Nov-24 05:14 096 8.9
2014-Nov-24 05:04 096 8.9
2014-Nov-24 04:54 096 8.9
2014-Nov-24 04:44 096 9.4
2014-Nov-24 04:34 065 8.9
2014-Nov-24 04:14 090 8.9
2014-Nov-24 04:04 090 8.9
2014-Nov-24 03:54 090 8.9
2014-Nov-24 03:44 090 8.9
2014-Nov-24 03:34 090 8.9
2014-Nov-24 03:14 090 9.4
2014-Nov-24 03:04 090 9.4
2014-Nov-24 02:44 090 8.9
2014-Nov-24 02:34 058 8.9
2014-Nov-24 02:14 083 8.9
2014-Nov-24 02:04 055 8.9
2014-Nov-24 01:54 055 8.9
2014-Nov-24 01:44 055 9.4
2014-Nov-24 01:34 055 9.4
2014-Nov-24 01:14 082 8.9
2014-Nov-24 01:04 082 8.9
2014-Nov-24 00:44 082 8.9
2014-Nov-24 00:34 051 9.4
2014-Nov-24 00:14 051 8.9
2014-Nov-24 00:04 051 8.9
2014-Nov-23 23:44 051 8.9
2014-Nov-23 23:34 051 8.9
2014-Nov-23 23:14 051 8.9
2014-Nov-23 23:04 051 8.9
2014-Nov-23 22:54 076 8.9
2014-Nov-23 22:44 076 9.4
2014-Nov-23 22:34 076 9.4
2014-Nov-23 22:14 076 10.0
2014-Nov-23 22:04 076 10.0
2014-Nov-23 21:54 076 9.4
2014-Nov-23 21:44 053 9.4
2014-Nov-23 21:34 065 9.4
2014-Nov-23 21:14 083 9.4
2014-Nov-23 21:04 083 9.4
2014-Nov-23 20:54 083 9.4
2014-Nov-23 20:44 083 9.4
2014-Nov-23 20:34 083 9.4
2014-Nov-23 20:14 083 10.0
2014-Nov-23 20:04 083 10.0
2014-Nov-23 19:54 083 10.0
2014-Nov-23 19:44 083 9.4
2014-Nov-23 19:34 083 10.0
2014-Nov-23 19:14 083 10.0
2014-Nov-23 19:04 083 10.0
2014-Nov-23 18:54 083 10.0
2014-Nov-23 18:44 083 10.6
2014-Nov-23 18:34 083 10.6
2014-Nov-23 18:14 083 10.6
2014-Nov-23 18:04 083 10.6
2014-Nov-23 17:54 083 11.1
2014-Nov-23 17:44 083 11.1
2014-Nov-23 17:34 083 11.1
2014-Nov-23 17:14 083 11.7
2014-Nov-23 17:04 083 11.7
2014-Nov-23 16:44 290 12.2
2014-Nov-23 16:34 290 12.8
2014-Nov-23 16:14 290 13.3
2014-Nov-23 16:04 290 13.3
2014-Nov-23 15:54 290 13.9
2014-Nov-23 15:44 290 14.4
2014-Nov-23 15:34 290 15.0
2014-Nov-23 15:14 290 16.1
2014-Nov-23 15:04 290 16.7
2014-Nov-23 14:54 290 16.7
2014-Nov-23 14:44 290 17.2
2014-Nov-23 14:34 290 17.2
2014-Nov-23 14:14 290 17.2
2014-Nov-23 14:04 290 17.2
2014-Nov-23 13:44 290 17.2
2014-Nov-23 13:34 290 16.7
2014-Nov-23 13:14 290 17.2
2014-Nov-23 13:04 210 16.7
2014-Nov-23 12:44 210 16.7
2014-Nov-23 12:34 210 16.7
2014-Nov-23 12:14 210 16.1
2014-Nov-23 12:04 210 15.6
2014-Nov-23 11:54 210 15.6
2014-Nov-23 11:44 210 15.6
2014-Nov-23 11:34 210 15.6
2014-Nov-23 11:14 359 16.7
2014-Nov-23 11:04 077 17.2
2014-Nov-23 10:54 077 17.2
2014-Nov-23 10:44 077 17.2
2014-Nov-23 10:34 077 16.7
2014-Nov-23 10:14 077 16.1
2014-Nov-23 10:04 077 15.6
2014-Nov-23 09:44 077 14.4
2014-Nov-23 09:34 077 13.9
2014-Nov-23 09:14 077 13.3
2014-Nov-23 09:04 077 12.8
2014-Nov-23 08:54 077 12.8
2014-Nov-23 08:44 077 12.8
2014-Nov-23 08:34 077 12.2
2014-Nov-23 08:14 077 11.7
2014-Nov-23 08:04 077 11.1
2014-Nov-23 07:54 077 10.6
2014-Nov-23 07:44 077 10.6
2014-Nov-23 07:34 077 10.0
2014-Nov-23 07:14 077 10.0
2014-Nov-23 07:04 077 9.4
2014-Nov-23 06:54 077 9.4
2014-Nov-23 06:44 077 8.9
2014-Nov-23 06:34 077 8.9
2014-Nov-23 06:14 049 9.4
2014-Nov-23 06:04 049 9.4
2014-Nov-23 05:44 049 8.9
2014-Nov-23 05:34 032 8.9
2014-Nov-23 05:14 051 8.9
2014-Nov-23 05:04 051 8.9
2014-Nov-23 04:44 051 8.9
2014-Nov-23 04:34 051 8.9
2014-Nov-23 04:14 042 9.4
2014-Nov-23 04:04 042 9.4
2014-Nov-23 03:44 042 9.4
2014-Nov-23 03:34 042 9.4
2014-Nov-23 03:14 042 9.4
2014-Nov-23 03:04 042 8.9
2014-Nov-23 02:54 042 8.9
2014-Nov-23 02:44 042 9.4
2014-Nov-23 02:34 042 9.4
2014-Nov-23 02:14 042 9.4
2014-Nov-23 02:04 042 9.4
2014-Nov-23 01:54 042 9.4
2014-Nov-23 01:44 042 9.4
2014-Nov-23 01:34 042 9.4
2014-Nov-23 01:14 042 10.0
2014-Nov-23 01:04 042 10.0
2014-Nov-23 00:54 042 10.0
2014-Nov-23 00:44 042 10.0
2014-Nov-23 00:34 042 10.0
2014-Nov-23 00:14 042 10.6
2014-Nov-23 00:04 042 10.6
2014-Nov-22 23:54 042 10.6
2014-Nov-22 23:44 042 10.6
2014-Nov-22 23:34 042 10.6
2014-Nov-22 23:14 053 10.6
2014-Nov-22 23:04 053 11.1
2014-Nov-22 22:54 105 11.1
2014-Nov-22 22:44 052 11.1
2014-Nov-22 22:34 052 11.1
2014-Nov-22 22:14 052 11.1
2014-Nov-22 22:04 052 11.1
2014-Nov-22 21:54 045 11.1
2014-Nov-22 21:44 045 11.1
2014-Nov-22 21:34 045 11.1
2014-Nov-22 21:14 045 11.1
2014-Nov-22 21:04 045 11.1
2014-Nov-22 20:54 045 11.1
2014-Nov-22 20:44 077 2 gusting 2 11.1
2014-Nov-22 20:34 056 11.1
2014-Nov-22 20:14 056 11.1
2014-Nov-22 20:04 056 11.1
2014-Nov-22 19:54 056 11.1
2014-Nov-22 19:44 077 10.6
2014-Nov-22 19:34 077 10.6
2014-Nov-22 19:24 077 11.1
2014-Nov-22 19:14 077 11.1
2014-Nov-22 19:04 077 11.1
2014-Nov-22 18:54 077 10.6
2014-Nov-22 18:44 063 10.6
2014-Nov-22 18:34 075 10.6
2014-Nov-22 18:14 075 11.1
2014-Nov-22 18:04 075 11.1
2014-Nov-22 17:54 075 11.1
2014-Nov-22 17:44 075 11.1
2014-Nov-22 17:34 075 11.7
2014-Nov-22 17:14 075 11.7
2014-Nov-22 17:04 075 11.7
2014-Nov-22 16:44 075 12.8
2014-Nov-22 16:34 075 12.8
2014-Nov-22 16:14 060 13.9
2014-Nov-22 16:04 072 13.9
2014-Nov-22 15:44 233 15.0
2014-Nov-22 15:34 233 15.6
2014-Nov-22 15:14 233 16.7
2014-Nov-22 15:04 233 17.2
2014-Nov-22 14:54 233 17.2
2014-Nov-22 14:44 233 17.2
2014-Nov-22 14:34 233 17.8
2014-Nov-22 14:14 233 18.3
2014-Nov-22 14:04 233 18.3
2014-Nov-22 13:54 233 18.9
2014-Nov-22 13:44 233 18.9
2014-Nov-22 13:34 233 18.3
2014-Nov-22 13:14 233 18.3
2014-Nov-22 13:04 267 18.3
2014-Nov-22 12:54 267 18.3
2014-Nov-22 12:44 263 2 gusting 2 18.3
2014-Nov-22 12:34 257 17.8
2014-Nov-22 12:24 359 17.8
2014-Nov-22 12:14 359 17.2
2014-Nov-22 12:04 291 17.2
2014-Nov-22 11:54 291 16.7
2014-Nov-22 11:44 291 1 gusting 2 16.7
2014-Nov-22 11:34 314 16.1
2014-Nov-22 11:14 314 16.1
2014-Nov-22 11:04 169 16.1
2014-Nov-22 10:54 169 15.6
2014-Nov-22 10:44 195 15.6
2014-Nov-22 10:34 205 15.6
2014-Nov-22 10:14 205 15.6
2014-Nov-22 10:04 205 16.1
2014-Nov-22 09:54 205 16.1
2014-Nov-22 09:44 072 15.6
2014-Nov-22 09:34 072 15.6
2014-Nov-22 09:14 072 15.0
2014-Nov-22 09:04 072 14.4
2014-Nov-22 08:54 072 13.9
2014-Nov-22 08:44 072 13.3
2014-Nov-22 08:34 072 12.8
2014-Nov-22 08:14 072 11.7
2014-Nov-22 08:04 072 11.1